Location: Fontevrault
(47.1823°N, 0.0493°E)
Time: 09:46:51
(UTC+00:00)

Cosmos 1867 - Pass Details

Date: 16 June 2021
Orbit: 773 x 802 km, 65.0° (Epoch: 27 July)

Event Time Altitude Azimuth Distance (km) Brightness Sun altitude
Rises 23:23:05 0° 320° (NW) 3,322 7.8 -18.9°
Reaches altitude 10° 23:25:34 10° 316° (NW) 2,388 6.8 -19.0°
Maximum altitude 23:30:55 56° 240° (WSW) 955 3.8 -19.1°
Enters shadow 23:32:53 36° 182° (S) 1,244 4.0 -19.2°
